Notices

What's New in latest Release from April 7th, 2021:

- Updated Glossary, including Speed of Maximum Gust, and Total Hourly Precipitation

- Updated national and regional climate services offices contacts and prices information

- Addition of station inventory lists for 1981-2010, 1971-2000, and 1961-1990 Normals.

If you haven't already, please take our survey and provide feedback about our website: https://eccc.sondage-survey.ca/f/LanguageSelection.aspx?s=442ca660-fcf1-47c0-95a9-59707d6fd709

Hourly Data Report for April 01, 2006

TORONTO CITY
ONTARIO

43°40'00.000" N
79°24'00.000" W
112.50 m
6158355
71508
XTO

Download Data

Hourly Data (April 2006)
Hourly Data Report for April 1, 2006
TIME
LST
Temp Definition
°C
Dew Point Definition
°C
Rel Hum Definition
%
Precip. Amount Definition
mm

Wind Dir Definition
10's deg

Wind Spd Definition
km/h
Visibility Definition
km
Stn Press Definition
kPa
Hmdx Definition


Wind Chill Definition


Weather Definition


00:00 11.8 9.7 87   LegendMM LegendMM   99.11     LegendNANA
01:00 11.4 10.7 95   LegendMM LegendMM   98.97     LegendNANA
02:00 11.2 9.8 91   LegendMM LegendMM   98.87     LegendNANA
03:00 9.7 9.2 97   LegendMM LegendMM   98.83     LegendNANA
04:00 10.5 7.8 83   LegendMM LegendMM   98.90     LegendNANA
05:00 9.8 6.1 78   LegendMM LegendMM   98.95     LegendNANA
06:00 9.9 6.2 78   LegendMM LegendMM   99.04     LegendNANA
07:00 9.9 6.0 77   LegendMM LegendMM   99.06     LegendNANA
08:00 9.9 5.8 76   LegendMM LegendMM   99.14     LegendNANA
09:00 10.1 5.4 73   LegendMM LegendMM   99.20     LegendNANA
10:00 10.6 5.7 72   LegendMM LegendMM   99.26     LegendNANA
11:00 12.4 7.0 70   LegendMM LegendMM   99.31     LegendNANA
12:00 11.4 7.0 74   LegendMM LegendMM   99.43     LegendNANA
13:00 11.8 7.1 73   LegendMM LegendMM   99.49     LegendNANA
14:00 10.2 6.3 77   LegendMM LegendMM   99.63     LegendNANA
15:00 9.8 5.7 76   LegendMM LegendMM   99.75     LegendNANA
16:00 9.5 5.3 75   LegendMM LegendMM   99.86     LegendNANA
17:00 8.3 4.8 79   LegendMM LegendMM   99.98     LegendNANA
18:00 7.7 3.8 76   LegendMM LegendMM   100.09     LegendNANA
19:00 6.9 2.2 72   LegendMM LegendMM   100.19     LegendNANA
20:00 6.7 2.4 74   LegendMM LegendMM   100.27     LegendNANA
21:00 6.2 1.8 73   LegendMM LegendMM   100.38     LegendNANA
22:00 6.0 1.5 73   LegendMM LegendMM   100.46     LegendNANA
23:00 5.4 1.0 73   LegendMM LegendMM   100.50     LegendNANA

Notes on Data Quality.

Legend

  • E = Estimated
  • M = Missing
  • NA = Not Available*
  • [empty] = Indicates an unobserved value
Date modified: